CAPE
0 0 0 0 0 0 0 0 0 0 0 0 0 0 0 0 0 0 0 0 0 0 0 0 0 0 0 0 0 0 0 0 0 0 0 0 0 0 0 0 0 0 0
0 0 0 0 0 0 0 0 0 0 0 0 0 0 0 0 0 0 0 0 0 0 0 0 0 0 0 0 0 0 0 0 1 0 0 0 0 0 0 0 0 0 0
0 0 0 0 0 0 0 0 0 0 0 0 0 0 0 0 0 0 0 0 0 0 0 0 0 0 0 0 0 0 0 0 2 4 0 0 0 0 0 0 0 0 0
0 0 0 0 0 0 0 0 0 0 0 0 0 0 0 0 0 0 0 0 0 0 0 0 0 0 0 0 0 0 0 2 5 2 1 0 0 0 0 2 2 0 0
0 0 0 0 0 0 0 0 0 0 0 0 0 0 0 0 0 0 0 0 0 0 0 0 0 0 0 0 0 0 1 5 5 5 2 0 0 1 5 7 3 0 0
0 0 0 0 0 0 0 0 0 0 0 0 0 0 0 0 0 0 0 0 0 0 0 0 0 0 0 0 0 1 3 4 6 5 0 0 0 6 4 2 4 8 5
0 0 0 0 0 0 0 0 0 0 0 0 0 0 0 0 0 0 0 0 0 0 0 0 0 0 0 0 0 2 1 1 0 0 0 2 4 1 0 1 2 8 2
0 0 0 0 0 0 0 0 0 0 0 0 0 0 0 0 0 0 0 0 0 0 0 0 0 0 0 0 0 2 0 0 0 0 0 0 0 0 0 3 3 0 0
0 0 0 0 0 0 0 0 0 0 0 0 0 0 0 0 0 0 0 0 0 0 0 0 0 0 0 3 1 0 0 0 0 0 0 0 0 1 4 0 1 5 0
0 0 0 0 0 0 0 0 0 0 0 0 0 0 0 0 0 0 0 0 0 0 0 0 0 0 2 12 0 0 0 0 0 0 0 0 0 0 1 0 0 6 5
0 0 0 0 0 0 0 0 0 0 0 0 0 0 0 0 0 0 0 0 0 0 0 0 0 0 8 6 7 0 1 0 0 0 0 0 0 0 0 0 0 1 5
0 0 0 0 0 0 0 0 0 0 0 0 0 0 0 0 0 0 0 0 0 0 0 0 0 5 1 1 0 0 1 0 0 0 0 0 0 0 0 0 0 0 1
0 0 0 0 0 0 0 0 0 0 0 0 0 0 0 0 0 0 0 0 0 0 0 1 2 0 0 0 0 0 0 0 0 0 0 0 0 0 0 0 0 0 0
0 0 0 0 0 0 0 0 0 0 0 0 0 0 0 0 0 0 0 0 0 0 0 0 0 0 0 0 0 0 0 0 0 0 0 0 0 0 0 0 0 1 1
0 0 0 0 0 0 0 0 0 0 0 0 0 0 0 0 0 0 2 2 1 0 0 0 0 0 0 0 0 0 0 0 0 0 0 0 0 0 0 0 0 0 0
0 0 0 0 0 0 0 0 0 0 0 0 0 0 0 0 0 2 4 8 10 1 0 0 0 0 0 0 0 0 0 0 0 0 0 0 0 0 0 0 0 0 0
0 0 0 0 0 0 0 0 0 0 0 0 0 0 0 1 1 3 13 0 0 0 0 0 0 0 0 0 0 0 0 0 0 0 0 0 0 0 0 0 0 0 0
0 0 0 0 0 0 0 0 0 0 0 0 0 0 1 1 2 4 3 0 0 0 0 0 0 0 0 0 0 0 0 0 0 0 0 0 0 0 0 0 0 0 0
0 0 0 0 0 0 0 0 0 0 0 0 0 0 0 0 1 0 0 0 0 0 0 0 0 0 0 0 0 0 0 0 0 0 0 0 0 0 0 0 0 0 0
0 0 0 0 0 0 0 0 0 0 0 0 0 0 0 0 0 0 0 0 0 0 0 0 0 0 0 0 0 0 0 0 0 0 0 0 0 0 0 0 0 0 0
0 0 0 0 0 0 0 0 0 0 0 0 0 0 0 0 0 0 0 0 0 0 0 0 0 0 0 0 0 0 0 0 0 0 0 0 0 0 0 0 0 0 0
0 0 0 0 0 0 0 0 0 0 0 0 0 0 0 0 0 0 0 0 0 0 0 0 0 0 0 0 0 0 0 0 0 0 0 0 0 0 0 0 0 0 0
0 0 0 0 0 0 0 0 0 0 0 0 0 0 0 0 0 0 0 0 0 0 0 0 0 0 0 0 0 0 0 0 0 0 0 0 0 0 0 0 0 0 0
0 0 0 0 0 0 0 0 0 0 0 0 0 0 0 0 0 0 0 0 0 0 0 0 0 0 0 0 0 0 0 0 0 0 0 0 0 0 0 0 0 0 0
0 0 0 0 0 0 0 0 0 0 0 0 0 0 0 0 0 0 0 0 0 0 0 0 0 0 0 0 0 0 0 0 0 0 0 0 0 0 0 0 0 0 0
0 0 0 0 0 0 0 0 0 0 0 0 0 0 0 0 0 0 0 0 0 0 0 0 0 0 0 0 0 0 0 4 1 0 0 0 0 0 0 0 0 0 0
CIN
-0 -0 -0 -0 -0 -0 -0 -0 -0 -0 -0 -0 -0 -0 -0 -0 -0 -0 -0 -0 -0 -0 -0 -0 -0 -0 -0 -0 -0 -0 -0 -0 -0 -0 -0 -0 -0 -0 -0 -0 -0 -0 -0
-0 -0 -0 -0 -0 -0 -0 -0 -0 -0 -0 -0 -0 -0 -0 -0 -0 -0 -0 -0 -0 -0 -0 -0 -0 -0 -0 -0 -0 -0 -0 -0 -0 -0 -0 -0 -0 -0 -0 -0 -0 -0 -0
-0 -0 -0 -0 -0 -0 -0 -0 -0 -0 -0 -0 -0 -0 -0 -0 -0 -0 -0 -0 -0 -0 -0 -0 -0 -0 -0 -0 -0 -0 -0 -0 -0 -0 -0 -0 -0 -0 -0 -0 -0 -0 -0
-0 -0 -0 -0 -0 -0 -0 -0 -0 -0 -0 -0 -0 -0 -0 -0 -0 -0 -0 -0 -0 -0 -0 -0 -0 -0 -0 -0 -0 -0 -0 -0 -0 -0 -0 -0 -0 -0 -0 -0 -0 -0 -0
-0 -0 -0 -0 -0 -0 -0 -0 -0 -0 -0 -0 -0 -0 -0 -0 -0 -0 -0 -0 -0 -0 -0 -0 -0 -0 -0 -0 -0 -0 -0 -0 -0 -0 -0 -0 -0 -0 -0 -0 -0 -0 -0
-0 -0 -0 -0 -0 -0 -0 -0 -0 -0 -0 -0 -0 -0 -0 -0 -0 -0 -0 -0 -0 -0 -0 -0 -0 -0 -0 -0 -0 -0 -0 -0 -0 -0 -0 -0 -0 -0 -0 -0 -0 -0 -0
-0 -0 -0 -0 -0 -0 -0 -0 -0 -0 -0 -0 -0 -0 -0 -0 -0 -0 -0 -0 -0 -0 -0 -0 -0 -0 -0 -0 -0 -0 -0 -0 -0 -0 -0 -0 -0 -0 -0 -0 -0 -0 -0
-0 -0 -0 -0 -0 -0 -0 -0 -0 -0 -0 -0 -0 -0 -0 -0 -0 -0 -0 -0 -0 -0 -0 -0 -0 -0 -0 -0 -0 -0 -0 -0 -0 -0 -0 -0 -0 -0 -0 -0 -0 -0 -0
-0 -0 -0 -0 -0 -0 -0 -0 -0 -0 -0 -0 -0 -0 -0 -0 -0 -0 -0 -0 -0 -0 -0 -0 -0 -0 -0 -0 -0 -0 -0 -0 -0 -0 -0 -0 -0 -0 -0 -0 -0 -0 -0
-0 -0 -0 -0 -0 -0 -0 -0 -0 -0 -0 -0 -0 -0 -0 -0 -0 -0 -0 -0 -0 -0 -0 -0 -0 -0 -0 -0 -0 -0 -0 -0 -0 -0 -0 -0 -0 -0 -0 -0 -0 -0 -0
-0 -0 -0 -0 -0 -0 -0 -0 -0 -0 -0 -0 -0 -0 -0 -0 -0 -0 -0 -0 -0 -0 -0 -0 -0 -0 -0 -0 -0 -0 -0 -0 -0 -0 -0 -0 -0 -0 -0 -0 -0 -0 -0
-0 -0 -0 -0 -0 -0 -0 -0 -0 -0 -0 -0 -0 -0 -0 -0 -0 -0 -0 -0 -0 -0 -0 -0 -0 -0 -0 -0 -0 -0 -0 -0 -0 -0 -0 -0 -0 -0 -0 -0 -0 -0 -0
-0 -0 -0 -0 -0 -0 -0 -0 -0 -0 -0 -0 -0 -0 -0 -0 -0 -0 -0 -0 -0 -0 -0 -0 -0 -0 -0 -0 -0 -0 -0 -0 -0 -0 -0 -0 -0 -0 -0 -0 -0 -0 -0
-0 -0 -0 -0 -0 -0 -0 -0 -0 -0 -0 -0 -0 -0 -0 -0 -0 -0 -0 -0 -0 -0 -0 -0 -0 -0 -0 -0 -0 -0 -0 -0 -0 -0 -0 -0 -0 -0 -0 -0 -0 -0 -0
-0 -0 -0 -0 -0 -0 -0 -0 -0 -0 -0 -0 -0 -0 -0 -0 -0 -0 -0 -0 -0 -0 -0 -0 -0 -0 -0 -0 -0 -0 -0 -0 -0 -0 -0 -0 -0 -0 -0 -0 -0 -0 -0
-0 -0 -0 -0 -0 -0 -0 -0 -0 -0 -0 -0 -0 -0 -0 -0 -0 -0 -0 -0 -0 -0 -0 -0 -0 -0 -0 -0 -0 -0 -0 -0 -0 -0 -0 -0 -0 -0 -0 -0 -0 -0 -0
-0 -0 -0 -0 -0 -0 -0 -0 -0 -0 -0 -0 -0 -0 -0 -0 -0 -0 -0 -0 -0 -0 -0 -0 -0 -0 -0 -0 -0 -0 -0 -0 -0 -0 -0 -0 -0 -0 -0 -0 -0 -0 -0
-0 -0 -0 -0 -0 -0 -0 -0 -0 -0 -0 -0 -0 -0 -0 -0 -0 -0 -0 -0 -0 -0 -0 -0 -0 -0 -0 -0 -0 -0 -0 -0 -0 -0 -0 -0 -0 -0 -0 -0 -0 -0 -0
-0 -0 -0 -0 -0 -0 -0 -0 -0 -0 -0 -0 -0 -0 -0 -0 -0 -0 -0 -0 -0 -0 -0 -0 -0 -0 -0 -0 -0 -0 -0 -0 -0 -0 -0 -0 -0 -0 -0 -0 -0 -0 -0
-0 -0 -0 -0 -0 -0 -0 -0 -0 -0 -0 -0 -0 -0 -0 -0 -0 -0 -0 -0 -0 -0 -0 -0 -0 -0 -0 -0 -0 -0 -0 -0 -0 -0 -0 -0 -0 -0 -0 -0 -0 -0 -0
-0 -0 -0 -0 -0 -0 -0 -0 -0 -0 -0 -0 -0 -0 -0 -0 -0 -0 -0 -0 -0 -0 -0 -0 -0 -0 -0 -0 -0 -0 -0 -0 -0 -0 -0 -0 -0 -0 -0 -0 -0 -0 -0
-0 -0 -0 -0 -0 -0 -0 -0 -0 -0 -0 -0 -0 -0 -0 -0 -0 -0 -0 -0 -0 -0 -0 -0 -0 -0 -0 -0 -0 -0 -0 -0 -0 -0 -0 -0 -0 -0 -0 -0 -0 -0 -0
-0 -0 -0 -0 -0 -0 -0 -0 -0 -0 -0 -0 -0 -0 -0 -0 -0 -0 -0 -0 -0 -0 -0 -0 -0 -0 -0 -0 -0 -0 -0 -0 -0 -0 -0 -0 -0 -0 -0 -0 -0 -0 -0
-0 -0 -0 -0 -0 -0 -0 -0 -0 -0 -0 -0 -0 -0 -0 -0 -0 -0 -0 -0 -0 -0 -0 -0 -0 -0 -0 -0 -0 -0 -0 -0 -0 -0 -0 -0 -0 -0 -0 -0 -0 -0 -0
-0 -0 -0 -0 -0 -0 -0 -0 -0 -0 -0 -0 -0 -0 -0 -0 -0 -0 -0 -0 -0 -0 -0 -0 -0 -0 -0 -0 -0 -0 -0 -0 -0 -0 -0 -0 -0 -0 -0 -0 -0 -0 -0
-0 -0 -0 -0 -0 -0 -0 -0 -0 -0 -0 -0 -0 -0 -0 -0 -0 -0 -0 -0 -0 -0 -0 -0 -0 -0 -0 -0 -0 -0 -0 -0 -0 -0 -0 -0 -0 -0 -0 -0 -0 -0 -0
Wind_Speed
14 12 14 12 8 9 9 9 8 9 9 9 9 8 8 8 7 8 8 7 8 7 5 5 5 4 3 3 1 2 2 3 5 8 8 10 12 12 11 11 12 11 10
10 10 15 12 9 8 10 9 8 9 9 9 8 8 7 7 6 7 7 6 6 6 5 5 4 2 3 2 2 3 4 4 6 11 11 10 12 12 12 13 10 10 11
10 9 12 12 9 9 8 8 8 10 9 8 7 8 7 7 7 6 6 6 5 5 4 4 3 1 2 3 4 4 5 6 6 8 11 9 10 10 12 11 11 11 11
8 9 11 10 9 8 8 8 9 8 8 8 7 7 7 6 6 6 5 5 4 3 3 1 1 2 3 6 6 6 7 8 7 9 10 10 11 11 10 11 11 11 12
9 10 9 9 8 8 8 8 8 7 7 7 7 6 5 5 4 5 4 4 3 2 1 1 2 4 4 8 6 7 8 8 8 9 10 11 11 10 12 11 13 13 12
10 10 9 9 8 8 8 7 7 7 6 6 5 5 5 4 7 7 4 3 1 1 2 3 4 2 6 9 10 12 11 8 9 10 10 11 13 12 11 12 12 12 11
10 9 8 7 8 7 7 7 6 6 5 5 4 4 4 2 5 5 4 2 2 2 3 3 3 3 6 7 11 13 6 8 12 12 12 11 14 15 15 14 14 13 13
9 8 8 7 7 6 6 5 5 4 4 3 3 2 3 2 3 1 1 2 2 3 3 3 3 5 7 10 10 4 5 7 9 8 10 13 14 14 13 12 14 14 11
9 8 8 7 7 6 6 5 4 4 3 2 2 3 2 1 4 4 4 2 4 3 3 2 3 6 11 16 6 6 8 9 8 12 16 19 18 17 15 9 9 10 12
8 9 8 7 7 6 5 5 3 2 3 2 2 1 2 2 4 5 4 2 4 3 3 3 5 9 14 14 8 8 10 8 8 10 10 11 12 11 15 9 9 9 10
7 7 7 6 6 6 5 2 3 3 3 3 2 2 0 0 2 4 5 3 3 4 4 3 3 12 13 14 15 7 10 9 10 7 7 7 7 8 7 8 10 9 10
9 8 7 6 5 5 6 4 4 4 3 1 1 1 1 2 3 5 8 8 9 4 5 4 4 9 11 12 10 15 15 9 5 6 7 7 8 8 8 9 12 11 11
9 8 6 6 6 5 5 5 3 2 2 2 2 3 2 2 2 6 8 9 8 6 3 4 8 9 10 8 12 13 9 5 6 6 7 8 8 9 11 10 11 12 14
10 7 6 6 6 4 3 3 3 2 1 2 2 1 1 1 2 3 3 4 7 6 4 4 7 8 8 6 5 7 5 5 6 7 7 8 8 8 9 8 10 10 11
9 7 6 4 4 4 4 2 2 1 2 2 2 1 1 3 3 8 9 5 2 6 4 2 3 4 6 6 5 5 5 5 6 6 7 8 8 9 9 8 8 10 9
7 5 4 4 3 3 3 3 2 3 2 2 5 4 1 5 9 11 11 11 10 8 3 2 3 4 5 6 6 7 6 6 6 6 7 7 8 9 10 10 9 9 10
7 6 4 4 3 4 2 3 4 3 8 9 9 8 8 8 9 10 10 10 11 7 2 2 3 5 5 6 6 6 6 7 6 6 7 8 8 8 9 9 10 9 11
6 6 4 4 4 3 3 3 3 2 2 1 6 7 9 9 9 10 11 8 4 4 1 2 4 5 5 6 6 6 6 6 6 6 7 7 7 8 9 9 9 10 11
6 4 4 4 4 4 4 4 3 3 3 2 2 4 6 10 8 10 8 2 1 2 3 4 4 4 5 5 5 5 5 6 6 6 6 6 7 7 9 8 10 14 13
5 8 5 5 4 4 3 3 3 3 3 2 1 2 3 3 3 3 2 1 2 3 4 4 5 4 4 5 5 5 6 6 6 5 6 6 7 6 8 10 9 10 11
5 5 7 4 4 3 3 4 3 3 2 1 1 3 2 2 2 2 3 3 3 4 4 4 5 5 4 5 4 5 4 6 6 6 6 6 6 7 8 9 10 10 10
5 4 4 4 4 4 4 3 3 3 2 1 1 3 7 2 2 3 4 4 5 4 4 4 5 5 5 5 6 6 6 7 6 6 6 6 7 7 7 9 9 9 10
5 6 5 4 4 5 4 3 3 2 1 1 2 3 3 3 4 4 5 5 5 5 5 4 5 6 5 5 5 6 7 8 7 5 7 8 7 7 7 8 9 10 10
5 6 6 4 3 3 3 3 1 2 1 2 3 3 4 4 4 5 6 6 5 6 5 4 5 8 8 7 6 6 7 8 7 8 8 7 8 9 8 8 9 11 11
5 5 4 4 4 3 3 2 1 2 3 3 4 3 4 4 5 5 6 5 5 6 7 6 6 8 10 12 11 12 12 15 12 11 6 8 10 11 10 8 10 10 12
5 5 4 4 3 3 2 1 2 3 3 4 4 4 5 6 6 6 6 6 6 7 8 7 9 11 13 12 13 14 14 15 13 14 10 8 8 9 8 9 13 10 13
Wind_Direction
109 114 108 108 121 106 113 117 119 115 119 109 104 105 102 101 98 97 93 96 95 96 88 89 84 65 57 44 26 12 337 290 281 304 308 316 314 315 314 314 315 313 315
95 113 113 113 117 119 116 115 117 116 105 107 107 108 108 100 97 98 99 103 106 101 89 78 70 58 45 16 345 324 317 306 289 305 312 317 316 317 316 313 312 311 317
118 134 110 105 109 109 111 112 116 105 103 110 116 110 107 102 102 98 103 107 108 99 87 68 36 321 351 357 335 321 322 312 309 308 312 315 317 319 320 313 317 315 315
134 110 101 110 117 114 118 115 111 115 122 119 111 109 107 116 114 112 110 115 116 110 90 138 354 309 347 345 325 320 318 317 317 314 316 320 322 326 315 321 321 320 319
115 103 108 113 116 125 121 115 114 118 121 120 119 117 121 115 123 118 112 101 126 156 178 336 343 343 341 333 322 312 314 320 323 325 321 319 323 329 329 330 318 320 321
112 118 129 125 131 122 112 113 115 115 125 129 129 133 134 134 123 110 115 154 127 39 326 342 329 276 327 322 315 311 314 333 331 328 322 319 324 332 325 324 320 322 317
122 127 125 130 121 118 122 120 123 130 126 126 137 151 147 124 151 158 157 91 14 320 288 308 300 319 313 309 297 305 341 349 339 329 321 330 328 327 325 324 318 316 312
128 131 131 132 127 123 126 125 118 119 127 145 140 140 157 195 216 174 330 170 265 265 242 269 281 318 320 316 313 359 9 342 331 333 338 328 322 324 326 318 324 311 305
144 144 144 138 133 137 132 124 120 124 117 135 160 167 182 357 345 299 275 252 272 257 286 281 290 313 321 321 17 13 340 337 347 341 331 328 330 332 330 334 324 325 319
153 156 144 135 143 135 127 128 112 121 144 151 139 115 52 341 311 289 288 298 295 298 297 295 298 330 321 334 13 3 339 342 345 336 329 326 328 324 333 330 323 313 311
128 127 124 122 120 116 109 109 115 115 113 103 66 51 6 308 317 343 327 322 292 293 303 306 299 318 331 352 352 341 321 6 341 325 317 316 318 317 319 317 312 306 299
130 131 124 120 118 116 124 117 115 116 110 127 173 124 45 32 357 328 314 314 318 315 308 300 301 335 3 355 351 334 346 351 330 324 324 322 322 320 319 312 300 291 279
113 110 114 104 96 120 139 128 104 121 164 170 74 41 9 357 308 315 319 321 328 310 298 41 35 18 6 2 345 345 356 336 326 323 322 316 315 311 309 304 298 296 289
119 115 109 118 122 114 102 104 118 142 125 71 59 8 307 324 336 317 301 307 302 318 43 45 16 5 358 353 335 344 338 331 321 314 310 309 309 313 312 315 312 318 310
117 126 132 131 126 110 85 113 121 151 130 146 202 194 26 6 334 341 346 332 17 99 76 24 349 352 343 338 331 328 327 321 320 318 314 312 313 317 316 323 315 313 301
121 139 133 122 129 120 124 91 59 134 141 59 49 79 91 351 352 350 345 357 71 66 64 7 334 333 324 323 322 323 320 316 318 319 311 307 312 316 314 316 315 310 304
128 123 119 125 128 124 115 136 144 52 80 72 56 30 13 1 355 351 16 33 11 41 30 338 307 318 326 325 317 314 305 307 306 303 303 306 311 307 312 311 310 309 306
102 114 126 127 127 133 140 128 121 100 93 40 19 28 11 5 1 5 22 13 4 19 305 301 314 320 314 305 303 301 302 303 303 300 299 297 299 304 307 305 305 304 304
110 108 120 121 122 122 121 113 99 96 90 62 13 10 2 3 13 21 28 71 293 315 319 313 301 291 289 291 289 285 284 288 288 292 291 291 294 296 296 292 295 299 299
102 121 115 119 116 114 109 108 110 97 92 82 42 309 334 28 9 337 347 329 302 278 286 276 276 275 275 270 276 279 288 288 286 281 281 284 289 284 287 292 295 300 303
104 98 102 93 89 94 99 91 92 102 106 93 306 306 74 103 316 308 310 301 285 278 275 275 282 280 275 280 282 284 268 278 270 269 277 282 283 287 285 284 289 291 290
94 94 87 98 95 84 92 109 114 106 102 100 290 304 359 41 304 289 286 280 277 267 264 269 279 275 276 273 279 279 275 276 277 268 273 272 275 279 281 287 292 293 297
104 106 91 77 92 101 84 73 91 106 167 275 312 316 316 292 283 279 278 278 280 283 280 272 273 285 269 253 238 244 259 268 268 260 271 281 282 281 281 286 292 298 301
98 100 107 104 96 97 103 97 84 74 12 299 296 288 285 282 282 281 279 281 284 284 273 267 256 262 278 279 270 248 242 253 255 256 239 258 270 279 275 277 284 290 290
91 96 103 117 114 115 104 72 24 311 285 271 279 275 280 277 274 272 275 272 273 276 280 272 261 267 267 267 267 266 262 265 255 253 239 235 252 262 267 272 279 287 282
94 97 101 97 86 88 102 183 257 259 269 275 272 270 268 278 281 279 282 277 277 278 274 271 267 258 264 267 265 263 262 262 256 239 226 229 240 253 260 264 271 283 292